Location: Angwan Shehu
(11.2514°N, 7.4613°E)
Time: 01:39:51
(UTC+00:00)

Tiros 1 - Pass Details

Date: 21 April 2021
Orbit: 630 x 664 km, 48.4° (Epoch: 06 May)

Event Time Altitude Azimuth Distance (km) Brightness Sun altitude
Rises 15:24:54 0° 338° (NNW) 2,904 10.9 32.3°
Reaches altitude 10° 15:27:34 10° 352° (N) 2,000 10.0 31.7°
Maximum altitude 15:31:19 24° 47° (NE) 1,296 8.6 30.7°
Drops below altitude 10° 15:35:05 10° 102° (ESE) 2,014 9.2 29.8°
Sets 15:37:46 0° 115° (ESE) 2,928 10.0 29.2°
